Location: St. Louis
(38.6270°N, 90.1994°W)
Time: 10:31:18
(UTC-06:00)

A-11 Canister half - Pass Details

Date: 12 December 2021
Orbit: 1524 x 1684 km, 47.3° (Epoch: 25 January)

Event Time Altitude Azimuth Distance (km) Brightness Sun altitude
Rises 19:40:50 0° 168° (SSE) 4,844 11.5 -34.5°
Enters shadow 19:42:53 - 160° (SSE) 4,446 11.3 -34.9°
Reaches altitude 10° 19:46:50 10° 140° (SE) 3,897 - -35.6°
Maximum altitude 19:50:10 12° 120° (ESE) 3,747 - -36.3°
Drops below altitude 10° 19:53:30 10° 100° (E) 3,930 - -36.9°
Sets 19:59:33 0° 73° (ENE) 4,938 - -38.1°
